Weather History for KNUQ - March, 2012

Change the Weather History Date:

Saturday, March 10, 2012

  Actual Average Record
Temperature  
Mean Temperature 52 °F 56 °F  
Max Temperature 61 °F 64 °F 82 °F (2004)
Min Temperature 42 °F 47 °F 35 °F (2009)
Degree Days  
Heating Degree Days 13    
Month to date heating degree days 110  
Since 1 July heating degree days 1514  
Cooling Degree Days 0    
Month to date cooling degree days 0  
Year to date cooling degree days 0  
Growing Degree Days 2 (Base 50)    
Moisture  
Dew Point 42 °F    
Average Humidity 72    
Maximum Humidity 86    
Minimum Humidity 57    
Precipitation  
Precipitation 0.00 in 0.08 in 0.79 in (1983)
Month to date precipitation 0.02 0.84  
Year to date precipitation 1.80 6.66  
Since 1 July precipitation 3.57  
Sea Level Pressure  
Sea Level Pressure 30.10 in    
Wind  
Wind Speed 6 mph (NW)    
Max Wind Speed 16 mph    
Max Gust Speed 25 mph    
Visibility 10 miles    
Events      
T = Trace of Precipitation, MM = Missing Value Source: NWS Daily Summary

Daily Weather History Graph

Daily Weather History Graph

Search for Another Location

Airport or City:

Trip Planner

Search our weather history database for the weather conditions in past years. The results will help you decide how hot, cold, wet, or windy it might be!

Date:

Astronomy

Mar. 10, 2012 Rise Set
Actual Time 6:25 AM PST 6:11 PM PST
Civil Twilight 5:59 AM PST 6:37 PM PST
Nautical Twilight 5:29 AM PST 7:07 PM PST
Astronomical Twilight 4:59 AM PST 7:38 PM PST
Moon 9:24 PM PST (3/10) 7:29 AM PST (3/10)
Length of Visible Light 12h 37m
Length of Day
11h 45m
Waning Gibbous, 92% of the Moon is Illuminated
Mar 10
Waning Gibbous
Mar 14
Last Quarter
Mar 22
New
Mar 30
First Quarter
Apr 6
Full

Hourly Weather History & Observations

Time (PST) Temp. Windchill Dew Point Humidity Pressure Visibility Wind Dir Wind Speed Gust Speed Precip Events Conditions
12:56 AM 50.0 °F - 43.0 °F 77% 30.17 in 10.0 mi Calm Calm - N/A   Clear
1:56 AM 46.9 °F - 37.9 °F 71% 30.18 in 10.0 mi Calm Calm - N/A   Clear
2:56 AM 44.1 °F - 37.0 °F 76% 30.16 in 10.0 mi Calm Calm - N/A   Clear
3:56 AM 44.1 °F 42.5 °F 37.0 °F 76% 30.14 in 10.0 mi SSE 3.5 mph - N/A   Clear
4:56 AM 43.0 °F - 37.0 °F 80% 30.14 in 10.0 mi Calm Calm - N/A   Mostly Cloudy
5:39 AM 44.6 °F - 37.4 °F 76% 30.13 in 10.0 mi Calm Calm - N/A   Overcast
6:56 AM 45.0 °F - 37.9 °F 76% 30.14 in 10.0 mi Calm Calm - N/A   Clear
7:56 AM 48.0 °F - 39.9 °F 74% 30.15 in 10.0 mi SSE 4.6 mph - N/A   Clear
8:56 AM 51.1 °F - 41.0 °F 68% 30.15 in 10.0 mi Calm Calm - N/A   Partly Cloudy
9:56 AM 53.1 °F - 42.1 °F 66% 30.15 in 10.0 mi North 6.9 mph - N/A   Clear
10:56 AM 55.0 °F - 43.0 °F 64% 30.14 in 10.0 mi North 6.9 mph - N/A   Clear
11:56 AM 57.0 °F - 45.0 °F 64% 30.12 in 10.0 mi NNW 5.8 mph - N/A   Clear
12:56 PM 59.0 °F - 45.0 °F 60% 30.09 in 10.0 mi North 8.1 mph - N/A   Partly Cloudy
1:56 PM 60.1 °F - 46.0 °F 60% 30.06 in 10.0 mi North 12.7 mph - N/A   Clear
2:56 PM 57.9 °F - 46.9 °F 67% 30.05 in 10.0 mi NNW 12.7 mph 18.4 mph N/A   Scattered Clouds
3:56 PM 60.1 °F - 48.0 °F 64% 30.03 in 10.0 mi NNW 16.1 mph - N/A   Scattered Clouds
4:56 PM 57.9 °F - 48.0 °F 70% 30.02 in 10.0 mi NNW 10.4 mph 25.3 mph N/A   Partly Cloudy
5:56 PM 55.0 °F - 46.0 °F 72% 30.02 in 10.0 mi West 10.4 mph 17.3 mph N/A   Mostly Cloudy
6:56 PM 52.0 °F - 45.0 °F 77% 30.05 in 10.0 mi NW 9.2 mph - N/A   Mostly Cloudy
7:56 PM 51.1 °F - 44.1 °F 77% 30.05 in 10.0 mi WNW 8.1 mph - N/A   Overcast
8:56 PM 51.1 °F - 42.1 °F 71% 30.06 in 10.0 mi NW 8.1 mph - N/A   Overcast
9:56 PM 50.0 °F - 42.1 °F 74% 30.07 in 10.0 mi NW 8.1 mph - N/A   Overcast
10:56 PM 50.0 °F - 41.0 °F 71% 30.06 in 10.0 mi WNW 4.6 mph - N/A   Overcast
11:56 PM 50.0 °F - 41.0 °F 71% 30.07 in 10.0 mi WNW 3.5 mph - N/A   Overcast